Cape May, NJ

5:58 AM EST on January 22, 2017 (GMT -0500)
Cape May County

Weather History for KWWD - October, 2010

Change the Weather History Date:

Wednesday, October 20, 2010

  Actual Average Record
Temperature  
Mean Temperature 50 °F -  
Max Temperature 55 °F 61 °F 75 °F (2016)
Min Temperature 46 °F 47 °F 35 °F (2014)
Degree Days  
Heating Degree Days 14    
Moisture  
Dew Point 50 °F    
Average Humidity 92    
Maximum Humidity 100    
Minimum Humidity 88    
Precipitation  
Precipitation 0.00 in - - ()
Sea Level Pressure  
Sea Level Pressure 29.91 in    
Wind  
Wind Speed 1 mph (NNE)    
Max Wind Speed 5 mph    
Max Gust Speed -    
Visibility 7 miles    
Events      
Averages and records for this station are not official NWS values.
T = Trace of Precipitation, MM = Missing Value Source: NWS Daily Summary

Daily Weather History Graph

Daily Weather History Graph

Search for Another Location

Airport or City:

Trip Planner

Search our weather history database for the weather conditions in past years. The results will help you decide how hot, cold, wet, or windy it might be!

Date:

Astronomy

Oct. 20, 2010 Rise Set
Actual Time 7:14 AM EDT 6:14 PM EDT
Civil Twilight 6:47 AM EDT 6:41 PM EDT
Nautical Twilight 6:16 AM EDT 7:12 PM EDT
Astronomical Twilight 5:45 AM EDT 7:43 PM EDT
Moon 4:46 PM EDT (10/20) 4:54 AM EDT (10/20)
Length of Visible Light 11h 53m
Length of Day
10h 59m
Waxing Gibbous, 95% of the Moon is Illuminated
Oct 20
Waxing Gibbous
Oct 22
Full
Oct 30
Last Quarter
Nov 6
New
Nov 13
First Quarter

Hourly Weather History & Observations

Time (EDT) Temp. Dew Point Humidity Pressure Visibility Wind Dir Wind Speed Gust Speed Precip Events Conditions
12:55 AM 46.4 °F 44.6 °F 93% 29.96 in 10.0 mi Calm Calm - N/A   Scattered Clouds
2:35 AM 46.4 °F 44.6 °F 93% 29.96 in 10.0 mi Calm Calm - N/A   Clear
5:55 AM 50.0 °F 48.2 °F 94% 29.96 in 10.0 mi Calm Calm - N/A   Overcast
6:15 AM 50.0 °F 48.2 °F 94% 29.96 in 8.0 mi Calm Calm - N/A   Overcast
6:35 AM 50.0 °F 48.2 °F 94% 29.96 in 8.0 mi Calm Calm - N/A   Overcast
6:55 AM 50.0 °F 48.2 °F 94% 29.95 in 9.0 mi NNE 3.5 mph - N/A   Mostly Cloudy
7:15 AM 50.0 °F 48.2 °F 94% 29.95 in 5.0 mi NNE 4.6 mph - N/A   Overcast
7:35 AM 50.0 °F 48.2 °F 94% 29.95 in 5.0 mi NNE 4.6 mph - N/A   Overcast
8:35 AM 51.8 °F 48.2 °F 88% 29.97 in 8.0 mi Calm Calm - N/A   Overcast
8:55 AM 51.8 °F 48.2 °F 88% 29.97 in 10.0 mi Calm Calm - N/A   Overcast
9:15 AM 51.8 °F 48.2 °F 88% 29.97 in 9.0 mi NE 3.5 mph - N/A   Overcast
9:35 AM 51.8 °F 48.2 °F 88% 29.96 in 10.0 mi Calm Calm - N/A   Overcast
9:55 AM 53.6 °F 50.0 °F 88% 29.96 in 8.0 mi Calm Calm - N/A   Overcast
10:15 AM 53.6 °F 50.0 °F 88% 29.96 in 9.0 mi Calm Calm - N/A   Overcast
11:35 AM 55.4 °F 51.8 °F 88% 29.94 in 10.0 mi NNE 4.6 mph - N/A   Overcast
11:55 AM 55.4 °F 51.8 °F 88% 29.94 in 9.0 mi Calm Calm - N/A   Overcast
12:15 PM 55.4 °F 51.8 °F 88% 29.93 in 9.0 mi NNW 3.5 mph - N/A   Overcast
1:15 PM 55.4 °F 53.6 °F 94% 29.90 in 10.0 mi Calm Calm - N/A   Overcast
1:35 PM 55.4 °F 51.8 °F 88% 29.90 in 10.0 mi Calm Calm - N/A   Overcast
3:55 PM 55.4 °F 53.6 °F 94% 29.86 in 4.0 mi ENE 3.5 mph - N/A   Overcast
4:15 PM 55.4 °F 53.6 °F 94% 29.86 in 3.0 mi NW 4.6 mph - N/A   Overcast
4:35 PM 55.4 °F 53.6 °F 94% 29.87 in 3.0 mi Calm Calm - N/A   Overcast
5:15 PM 55.4 °F 53.6 °F 94% 29.85 in 3.0 mi Calm Calm - N/A   Overcast
5:35 PM 53.6 °F 53.6 °F 100% 29.84 in 2.5 mi ENE 3.5 mph - N/A   Overcast
5:55 PM 53.6 °F 53.6 °F 100% 29.84 in 3.0 mi Calm Calm - N/A   Overcast
7:35 PM 53.6 °F 51.8 °F 94% 29.85 in 5.0 mi Calm Calm - N/A   Overcast
9:35 PM 51.8 °F 50.0 °F 94% 29.83 in 3.0 mi Calm Calm - N/A   Overcast
10:15 PM 51.8 °F 50.0 °F 94% 29.83 in 4.0 mi Calm Calm - N/A   Overcast
11:15 PM 53.6 °F 51.8 °F 94% 29.83 in 4.0 mi Calm Calm - N/A   Overcast
11:55 PM 53.6 °F 51.8 °F 94% 29.82 in 9.0 mi West 4.6 mph - N/A   Overcast